Change the Weather History Date:

Saturday, August 17, 2013

  Actual Average Record
Temperature  
Mean Temperature 63 °F -  
Max Temperature 69 °F 69 °F 86 °F (2002)
Min Temperature 57 °F 54 °F 50 °F (1999)
Degree Days  
Heating Degree Days 2    
Growing Degree Days 13 (Base 50)    
Moisture  
Dew Point 57 °F    
Average Humidity 80    
Maximum Humidity 94    
Minimum Humidity 51    
Precipitation  
Precipitation 0.00 in - - ()
Sea Level Pressure  
Sea Level Pressure 29.90 in    
Wind  
Wind Speed 10 mph ()    
Max Wind Speed 21 mph    
Max Gust Speed 33 mph    
Visibility 7.5 miles    
Events Rain    
Averages and records for this station are not official NWS values.
T = Trace of Precipitation, MM = Missing Value Source: Averaged Metar Reports

Daily Weather History Graph

Daily Weather History Graph

Search for Another Location

Airport or City:

Trip Planner

Search our weather history database for the weather conditions in past years. The results will help you decide how hot, cold, wet, or windy it might be!

Date:

Astronomy

Aug. 17, 2013 Rise Set
Actual Time 5:50 AM BST 8:19 PM BST
Civil Twilight 5:13 AM BST 8:56 PM BST
Nautical Twilight 4:26 AM BST 9:43 PM BST
Astronomical Twilight 3:29 AM BST 10:39 PM BST
Moon 5:34 PM BST (8/17) 1:24 AM BST (8/17)
Length of Visible Light 15h 43m
Length of Day
14h 29m
Waxing Gibbous, 82% of the Moon is Illuminated
Aug 17
Waxing Gibbous
Aug 21
Full
Aug 28
Last Quarter
Sep 5
New
Sep 12
First Quarter

Hourly Weather History & Observations

Time (BST) Temp. Dew Point Humidity Pressure Visibility Wind Dir Wind Speed Gust Speed Precip Events Conditions
12:20 AM 62.6 °F 59.0 °F 88% 30.01 in - WSW 5.8 mph - N/A   Clear
12:50 AM 62 °F 59 °F 85% 30.00 in 14 mi WSW 5.8 mph - -  
12:50 AM 62.6 °F 59.0 °F 88% 30.01 in - WSW 6.9 mph - N/A   Clear
1:20 AM 62.6 °F 59.0 °F 88% 30.01 in 6.2 mi West 9.2 mph - N/A   Unknown
1:50 AM 60.8 °F 59.0 °F 94% 29.98 in 6.2 mi West 9.2 mph - N/A   Unknown
2:20 AM 60.8 °F 57.2 °F 88% 29.98 in 6.2 mi West 10.4 mph - N/A   Unknown
2:50 AM 59.0 °F 57.2 °F 94% 29.98 in - West 9.2 mph - N/A   Clear
3:20 AM 59.0 °F 57.2 °F 94% 29.98 in - West 8.1 mph - N/A   Clear
3:50 AM 57 °F 55 °F 91% 29.99 in 9 mi West 6.9 mph - -  
3:50 AM 59.0 °F 57.2 °F 94% 29.98 in - West 8.1 mph - N/A   Clear
4:20 AM 59.0 °F 55.4 °F 88% 29.98 in - West 6.9 mph - N/A   Clear
4:50 AM 59.0 °F 55.4 °F 88% 29.98 in - WSW 4.6 mph - N/A   Clear
5:20 AM 57.2 °F 55.4 °F 94% 29.98 in - SSW 4.6 mph - N/A   Clear
5:50 AM 57.2 °F 55.4 °F 94% 29.98 in - SSW 4.6 mph - N/A   Clear
6:20 AM 57.2 °F 55.4 °F 94% 29.98 in - SSW 5.8 mph - N/A   Clear
6:50 AM 58 °F 54 °F 84% 29.97 in 12 mi SSW 5.8 mph - -  
6:50 AM 57.2 °F 55.4 °F 94% 29.98 in - SSW 5.8 mph - N/A   Clear
7:20 AM 59.0 °F 55.4 °F 88% 29.98 in - SSW 5.8 mph - N/A   Clear
7:50 AM 59.0 °F 55.4 °F 88% 29.95 in - SW 6.9 mph - N/A   Clear
8:20 AM 60.8 °F 55.4 °F 82% 29.95 in - SSW 6.9 mph - N/A   Clear
8:50 AM 62.6 °F 53.6 °F 72% 29.95 in 6.2 mi SSW 8.1 mph - N/A   Partly Cloudy
9:20 AM 64.4 °F 53.6 °F 68% 29.95 in 6.2 mi SSW 9.2 mph - N/A   Partly Cloudy
9:50 AM 65 °F 54 °F 58% 29.94 in 25 mi SSW 12.7 mph - -  
9:50 AM 64.4 °F 53.6 °F 68% 29.95 in 6.2 mi SW 12.7 mph - N/A   Partly Cloudy
10:20 AM 66.2 °F 55.4 °F 68% 29.92 in 6.2 mi SW 13.8 mph - N/A   Partly Cloudy
10:50 AM 66.2 °F 55.4 °F 68% 29.92 in 6.2 mi SW 15.0 mph - N/A   Partly Cloudy
11:20 AM 66.2 °F 55.4 °F 68% 29.92 in 6.2 mi SSW 15.0 mph - N/A   Scattered Clouds
11:50 AM 68.0 °F 55.4 °F 64% 29.92 in 6.2 mi SW 15.0 mph - N/A   Scattered Clouds
12:20 PM 68.0 °F 55.4 °F 64% 29.92 in 6.2 mi SW 13.8 mph - N/A   Scattered Clouds
12:50 PM 69 °F 55 °F 51% 29.89 in 19 mi SSW 17.3 mph - -   Scattered Clouds
12:50 PM 68.0 °F 55.4 °F 64% 29.89 in 6.2 mi SW 15.0 mph - N/A   Scattered Clouds
1:20 PM 68.0 °F 55.4 °F 64% 29.89 in 6.2 mi SW 18.4 mph - N/A   Scattered Clouds
1:50 PM 68.0 °F 53.6 °F 60% 29.89 in 6.2 mi SW 18.4 mph 31.1 mph N/A   Scattered Clouds
2:20 PM 66.2 °F 53.6 °F 64% 29.86 in 6.2 mi SW 17.3 mph - N/A   Mostly Cloudy
2:50 PM 66.2 °F 55.4 °F 68% 29.86 in 6.2 mi SSW 17.3 mph - N/A Rain Light Rain
3:20 PM 64.4 °F 57.2 °F 77% 29.86 in 6.2 mi SW 16.1 mph - N/A   Partly Cloudy
3:50 PM 64 °F 56 °F 67% 29.87 in 19 mi SSW 17.3 mph - - Rain Rain
3:50 PM 64.4 °F 57.2 °F 77% 29.86 in 6.2 mi SW 17.3 mph 28.8 mph N/A   Mostly Cloudy
4:20 PM 64.4 °F 55.4 °F 73% 29.86 in 6.2 mi SW 16.1 mph - N/A   Mostly Cloudy
4:50 PM 64.4 °F 57.2 °F 77% 29.83 in 6.2 mi SW 16.1 mph - N/A   Scattered Clouds
5:20 PM 64.4 °F 55.4 °F 73% 29.83 in 6.2 mi SW 17.3 mph 28.8 mph N/A   Mostly Cloudy
5:50 PM 62.6 °F 57.2 °F 82% 29.83 in 6.2 mi SSW 16.1 mph 27.6 mph N/A   Scattered Clouds
6:20 PM 62.6 °F 57.2 °F 82% 29.80 in 6.2 mi SSW 16.1 mph - N/A   Mostly Cloudy
6:50 PM 64 °F 57 °F 71% 29.80 in 15 mi SSW 20.7 mph - -   Mostly Cloudy
6:50 PM 64.4 °F 57.2 °F 77% 29.80 in 6.2 mi SSW 17.3 mph - N/A   Mostly Cloudy
7:20 PM 62.6 °F 57.2 °F 82% 29.80 in 6.2 mi SW 16.1 mph 29.9 mph N/A   Scattered Clouds
7:50 PM 62.6 °F 57.2 °F 82% 29.80 in 6.2 mi SW 17.3 mph 29.9 mph N/A   Mostly Cloudy
8:20 PM 62.6 °F 57.2 °F 82% 29.80 in 6.2 mi SW 17.3 mph 31.1 mph N/A   Overcast
8:50 PM 62.6 °F 59.0 °F 88% 29.77 in 6.2 mi SW 17.3 mph 29.9 mph N/A   Overcast
9:20 PM 64.4 °F 59.0 °F 83% 29.77 in 6.2 mi SW 19.6 mph 33.4 mph N/A   Overcast
9:50 PM 64 °F 59 °F 78% 29.78 in 22 mi SSW 17.3 mph - -   Mostly Cloudy
9:50 PM 62.6 °F 59.0 °F 88% 29.77 in 6.2 mi SW 16.1 mph 27.6 mph N/A   Overcast
10:20 PM 62.6 °F 59.0 °F 88% 29.77 in 6.2 mi SW 16.1 mph - N/A   Mostly Cloudy
10:50 PM 62.6 °F 59.0 °F 88% 29.77 in 6.2 mi SSW 16.1 mph - N/A   Mostly Cloudy
11:20 PM 62.6 °F 60.8 °F 94% 29.74 in 6.2 mi SSW 12.7 mph - N/A   Mostly Cloudy
11:50 PM 64.4 °F 60.8 °F 88% 29.74 in 6.2 mi SSW 11.5 mph - N/A   Mostly Cloudy